Location: M?digepalle
(16.1753°N, 80.3496°E)
Time: 09:12:32
(UTC+00:00)

Cosmos 1825 Rocket - Pass Details

Date: 29 October 2020
Orbit: 603 x 631 km, 82.5° (Epoch: 28 November)

Event Time Altitude Azimuth Distance (km) Brightness Sun altitude
Rises 12:24:50 0° 353° (N) 2,889 6.9 -4.4°
Reaches altitude 10° 12:27:04 10° 352° (N) 1,978 6.1 -4.9°
Maximum altitude 12:31:26 76° 267° (W) 634 3.8 -5.9°
Drops below altitude 10° 12:35:46 10° 181° (S) 1,958 6.3 -6.9°
Sets 12:37:58 0° 179° (S) 2,856 7.1 -7.5°
